sat.trackr.live / text

‹ back to catalog

STARLINK-32155

NORAD 60274 · 2024-131V

PAYLOAD ACTIVE UNKNOWN

§ Identity

Operator
Country
US
Launch date
2024-07-27
Launch site
AFETR
Launch vehicle
Mass (kg)
RCS (m²)

Purposes: comms

External: N2YO · Heavens-Above · Gunter

§ Orbital elements

Epoch: 2026-09-21T02:29:30.228576Z

Period
94.01 min
Inclination
53.1603°
Eccentricity
0.0001442
Mean motion
15.31705265 rev/d
Perigee alt
469.7 km
Apogee alt
471.7 km
Semi-major
6,848.9 km
B*
9.1543e-6
RAAN
223.6027°
Arg perigee
90.9293°
Mean anomaly
269.1874°
Rev number
12,155

§ Raw data

STARLINK-321551 60274U 24131V   26264.10382209 -.00000081  00000+0  91543-5 0  99912 60274  53.1603 223.6027 0001442  90.9293 269.1874 15.31705265121550

JSON: /api/v1/satellites/60274 · /tle

For live sub-satellite position, see the globe view (requires WebGL).

§ Visibility from observer

Set your observer location to see the next 7 days of passes ≥ 10°. The values pass through the URL so the page stays shareable.

No JS? Fill the form by hand. The geolocation button needs JavaScript.